sat.trackr.live / text

‹ back to catalog

STARLINK-36430

NORAD 67326 · 2026-002X

PAYLOAD ACTIVE UNKNOWN

§ Identity

Operator
Country
US
Launch date
2026-01-04
Launch site
AFETR
Launch vehicle
Mass (kg)
RCS (m²)

Purposes: comms

External: N2YO · Heavens-Above · Gunter

§ Orbital elements

Epoch: 2026-05-24T23:53:28.431744Z

Period
94.27 min
Inclination
43.0045°
Eccentricity
0.0001239
Mean motion
15.27591461 rev/d
Perigee alt
482.2 km
Apogee alt
483.9 km
Semi-major
6,861.2 km
B*
5.0095e-4
RAAN
253.9123°
Arg perigee
286.3226°
Mean anomaly
73.7489°
Rev number
2,291

§ Raw data

STARLINK-364301 67326U 26002X   26144.99546796  .00013553  00000+0  50095-3 0  99942 67326  43.0045 253.9123 0001239 286.3226  73.7489 15.27591461 22914

JSON: /api/v1/satellites/67326 · /tle

For live sub-satellite position, see the globe view (requires WebGL).

§ Visibility from observer

Set your observer location to see the next 7 days of passes ≥ 10°. The values pass through the URL so the page stays shareable.

No JS? Fill the form by hand. The geolocation button needs JavaScript.